DELTA 1 DEB, 26036

Orbit data source: Space-Track

DELTA 1 DEB, 26036 is space debris in SSO originally from a launch on Thu, 12 Jun 1975 UTC launched from the Air Force Western Test Range (AFWTR). Debris objects in space refer to the collection of defunct objects orbiting the Earth. Examples of debris include non-operational satellites, rocket bodies, and fragments generated from explosions, collisions, or faulty payload assembly.

Loading next visibility...
Identifier
26036, 1975-052KA
Orbit
SSO
Country
Flag of USUS
Related business
Manufacturer
Unknown
Mission
Spacecraft
Bus & Motor
Unknown
Mass
Unknown
Launch date (UTC)
1975-06-12 (51 years ago)
Launch vehicle
Unknown
Launch site
Air Force Western Test Range (AFWTR)
Object type
Payload
Rocket body
Debris
Shape & HBR
Unknown shape, 0.1 m
Radar Cross Section
Medium (>0.1 m² and <1 m²)

Expand to show TLE details & history
Last TLE update: 2 days ago

TLE from 2 days ago
0 DELTA 1 DEB
1 26036U 75052KA  26171.37054221  .00016454  00000-0  18351-2 0  9997
2 26036  99.9419  42.1973 0054695  45.7486 314.8192 14.86053474434965
Epoch: 2026-06-20T08:53Z
TLE epoch observation values (Epoch: 2026-06-20T08:53:34.846Z)
Latitude
-0.00011°
Longitude
0.21599°
Altitude
586.4 km
Speed
7.582 km/s
True Right ascension
02h 48m 47s
True Declination
0° 00' 00"
Sunlit
Object was in daylight at epoch
Visualization orbit readout
Latitude
Unknown
Longitude
Unknown
Altitude
Unknown
Speed
Unknown
Apparent Right ascension
Unknown
Apparent Declination
Unknown
Sunlit
N/A
Visualization observer readout
Local Sidereal Time
11:17:59
Azimuth
Unknown
Elevation
Unknown
Doppler factor
Unknown
Orbital elements
Apogee altitude
645.624 km
Perigee altitude
569.209 km
Semi-major axis
6,985.554 km
Eccentricity
0.00547
Inclination
99.9419°
RAAN
42.1973°
Arg. of periapsis
45.7486°
True anomaly
314.37247°
Mean anomaly
314.8192°
Eccentric anomaly
314.59605°
Mean motion
3.71742 °/min
Orbital period
96.84 mins
BSTAR
0.0018351
Loading maneuver chart data...
Computing Atmospheric mass density...
Loading historical data...
Loading historical data...
Loading historical data...
Loading historical data...
Loading historical data...
Loading historical data...
Loading historical data...

Documentation

Showing up to 5 results
|